Weather in Ivankovo

Russia / Ivanovo Oblast     57°14′06″N   41°09′18″E
temp.,
°C
wind,
m/s
gust,
m/s
humid.,
%
clouds,
%
prec.,
mm/h
press.,
hPa
HPBL,
m
17 may, mon
mon1700:00+13wsw34861 0.0 101447
03:00+12wsw22905 0.0 101511
06:00+14wsw1183100 0.0 101648
09:00+19se226815 0.0 1017488
12:00+22se235634 0.0 10161245
15:00+24ese235242 0.0 10161317
18:00+23e367081 0.0 1015263
21:00+17ese41085100 0.1 1015171
18 may, tue
tue1800:00+16ese4992100 0.2 1015172
03:00+15se3792100 0.2 1015119
06:00+16se398684 0.0 1015203
09:00+21se596697 0.0 1015406
12:00+25se695453 0.0 1014832
15:00+27se5104977 0.0 10142399
18:00+24ese51164100 0.0 1013444
21:00+19ese514748 0.0 1013304
19 may, wed
wed1900:00+17se412755 0.0 1013238
03:00+15ese413815 0.0 1013223
06:00+16ese515725 0.0 1013322
09:00+22se612614 0.0 1013526
12:00+27se613510 0.0 10121438
15:00+27se710490 0.0 10121598
18:00+24se613604 0.0 1012564
21:00+20ese515755 0.0 1012408
20 may, thu
thu2000:00+19se515833 0.0 1012427
03:00+16ese5138618 0.0 1012280
06:00+17ese4118312 0.0 1011343
09:00+22se611662 0.0 1011724
12:00+25se8125913 0.0 10101429
15:00+25se815595 0.2 10092016
18:00+20sse814755 2.0 10101297
21:00+17s6137710 2.0 1012655
21 may, fri
fri2100:00+14s38912 0.0 1012210
03:00+12sse41096100 0.0 1013229
06:00+14s5119263 0.0 1012469
09:00+15sw7979100 0.1 10141074
12:00+16sw5966100 0.0 10151180
15:00+19sw695895 0.1 10162009
18:00+17wnw3670100 0.1 1017627
21:00+12sse118574 0.1 101811